Location: Namasale
(1.5000°N, 32.6167°E)
Time: 13:50:16
(UTC+00:00)

CZ-4 R/B - Pass Details

Date: 09 April 2020
Orbit: 531 x 598 km, 97.8° (Epoch: 04 June)

Event Time Altitude Azimuth Distance (km) Brightness Sun altitude
Rises 16:10:06 0° 150° (SSE) 2,704 4.5 -4.5°
Reaches altitude 10° 16:12:27 10° 138° (SE) 1,800 3.5 -5.1°
Maximum altitude 16:15:48 28° 78° (ENE) 1,022 2.2 -5.9°
Drops below altitude 10° 16:19:06 10° 19° (NNE) 1,775 3.8 -6.8°
Sets 16:21:24 0° 7° (N) 2,659 4.8 -7.3°
